Wind_Speed
15 16 17 17 18 19 19 20 20 21 21 22 22 23 23 25 28 23 10 22 14 18 23 9 9 8 11 4 5 5 2 5 6 6 9 6 10 16 6 6 7 3 6 9 21
14 15 16 17 19 21 21 22 21 20 21 22 23 24 26 27 27 15 31 26 25 20 11 11 7 8 4 6 4 6 7 9 9 7 6 9 1 11 18 12 6 6 1 2 7
16 15 17 18 18 19 20 21 21 21 21 21 22 23 24 24 7 8 9 12 11 25 26 12 13 4 7 6 7 6 14 12 12 9 10 14 15 9 14 15 9 7 8 5 4
18 18 19 19 20 20 20 19 19 19 20 21 22 22 23 9 7 1 6 17 19 15 24 12 6 5 6 11 10 10 14 15 16 16 14 17 15 17 15 16 11 10 9 6 9
20 20 22 23 24 23 24 24 23 21 20 19 18 17 10 3 10 23 28 34 23 7 23 10 11 7 6 6 7 21 17 13 12 18 20 18 21 20 24 19 16 17 11 9 8
22 23 25 26 26 27 28 27 28 28 24 18 15 11 5 9 17 19 20 19 18 12 13 12 6 7 4 5 9 4 4 13 13 19 18 18 23 21 22 20 21 13 12 10 9
23 24 26 28 29 30 31 33 32 27 23 18 12 8 9 19 17 26 28 30 26 17 6 11 16 6 5 4 10 11 10 15 21 10 13 18 27 28 23 18 22 16 12 10 10
25 25 28 30 32 31 32 29 29 29 21 14 7 5 7 31 29 33 24 26 19 16 16 19 11 4 4 5 6 2 4 18 20 19 9 5 32 23 10 10 17 17 18 21 22
24 27 30 32 29 27 26 27 27 21 9 3 3 4 10 14 8 14 15 15 12 15 10 11 5 6 3 4 1 6 17 21 24 10 5 13 42 13 11 14 14 14 17 17 19
27 29 31 30 28 26 23 25 18 12 12 2 2 4 6 6 10 34 23 12 7 3 4 1 2 5 4 6 19 12 22 18 17 7 15 18 33 22 19 22 24 24 24 22 21
29 31 33 29 25 20 21 20 11 4 14 3 18 16 23 46 45 35 19 15 6 4 6 3 4 18 27 17 10 10 12 15 4 10 14 20 22 20 17 19 14 17 17 19 17
30 31 30 24 23 13 12 2 9 8 9 13 16 19 31 34 23 28 29 7 5 4 3 4 18 14 10 6 12 14 15 19 6 8 10 14 25 25 24 24 19 22 21 17 14
31 31 28 22 14 12 13 15 23 18 3 8 16 11 14 5 18 24 10 8 9 11 9 10 6 9 16 13 17 16 18 14 10 11 20 7 19 18 18 14 12 11 13 12 16
32 30 26 25 3 18 13 22 17 14 2 5 7 5 8 2 2 14 24 15 9 11 12 11 12 14 14 19 17 18 12 11 16 13 15 4 20 24 19 25 18 13 11 15 13
31 31 25 12 12 7 16 22 19 2 3 12 8 5 7 11 14 3 12 7 22 21 8 12 9 4 13 16 15 19 14 11 13 11 14 14 6 30 10 18 17 18 19 19 14
34 26 23 4 11 12 19 22 3 5 3 7 7 13 12 9 15 12 4 13 14 8 20 13 9 14 13 14 12 8 10 16 17 4 8 12 13 22 15 18 11 12 11 12 10
36 26 14 14 6 15 22 6 5 4 9 9 21 17 6 11 14 11 5 3 5 4 2 3 9 11 11 12 11 7 1 4 4 6 16 13 9 21 11 7 11 15 15 14 9
32 20 12 16 17 14 12 5 6 4 6 15 19 21 5 8 8 11 10 7 0 12 4 6 4 9 2 2 6 7 9 5 7 5 8 14 10 9 16 25 25 17 17 6 4
29 13 8 6 4 7 4 5 3 9 5 12 12 6 5 8 4 8 7 3 8 13 3 0 5 2 7 8 2 5 10 7 5 14 2 7 9 8 19 24 22 18 5 6 7
18 9 7 4 3 4 4 2 3 11 10 9 3 4 11 8 6 9 5 3 5 8 2 6 5 5 6 5 3 6 4 3 4 8 6 6 6 11 8 10 10 10 10 7 6
6 4 4 7 0 4 2 5 9 13 11 6 6 7 9 6 8 6 4 5 3 6 5 3 1 5 5 4 8 3 2 3 4 4 10 3 6 5 13 12 17 8 14 15 13
8 3 2 5 3 1 1 5 11 15 9 4 5 4 4 5 5 5 4 4 7 6 6 1 2 4 10 15 13 4 6 5 2 7 4 4 16 12 16 9 19 12 15 12 13
4 3 4 3 3 4 5 10 13 10 15 4 5 4 3 3 4 5 3 7 4 2 2 4 2 4 9 2 7 6 3 1 4 6 16 6 9 3 8 7 4 19 16 14 14
3 4 4 4 1 2 6 6 11 9 14 10 9 4 6 7 4 6 11 4 5 6 9 2 4 6 6 7 7 8 8 7 3 3 11 16 16 22 21 8 6 6 17 18 17
2 2 1 4 5 7 7 5 14 6 6 9 4 6 8 6 9 4 5 9 6 13 4 7 4 10 12 17 17 18 16 12 8 6 4 7 17 18 17 13 11 12 17 18 18
2 3 4 6 6 6 5 3 15 11 7 8 8 16 8 10 9 17 12 9 9 5 7 6 4 5 15 18 18 19 13 12 11 12 11 15 26 13 9 9 6 18 20 19 18
5 4 2 5 5 4 3 12 12 12 9 11 13 14 10 13 13 20 18 19 16 10 7 8 5 3 8 13 3 4 12 9 5 7 6 7 12 15 7 2 7 8 19 20 19
Wind_Direction
355 352 348 342 341 339 337 335 333 331 330 329 328 326 327 322 316 312 241 250 249 261 250 259 279 229 217 251 207 140 145 235 227 205 249 46 360 317 332 342 342 264 170 187 210
354 350 346 343 339 337 334 334 333 331 330 328 326 324 327 327 321 265 277 272 259 238 211 208 226 205 199 216 230 172 193 228 231 233 284 308 241 290 305 319 300 320 245 9 324
354 347 343 338 334 330 328 327 328 327 325 324 321 322 325 334 300 243 52 14 330 234 229 224 232 224 215 223 211 210 226 214 254 256 261 272 288 237 273 278 252 254 282 306 301
351 345 340 336 332 329 328 324 318 315 316 317 318 324 324 334 272 130 42 353 331 266 225 210 211 201 206 217 233 264 239 230 249 262 266 260 271 277 263 256 248 236 227 245 246
349 344 341 339 336 333 332 327 323 317 310 305 309 318 338 324 261 257 281 303 316 282 201 200 196 162 203 208 231 251 254 245 247 249 254 266 265 263 276 279 276 272 279 256 258
348 344 340 338 334 329 326 324 321 317 311 303 305 309 288 276 265 284 295 300 291 328 216 195 205 192 264 223 214 296 292 266 257 251 256 259 265 265 266 271 279 280 284 281 264
349 347 343 341 336 332 327 324 321 316 307 300 294 283 250 252 271 289 281 281 278 287 283 262 225 187 190 283 246 262 282 279 259 248 256 257 262 253 253 268 270 271 273 267 261
338 342 340 335 333 333 331 332 327 325 312 292 277 269 256 273 284 284 283 283 276 277 253 267 275 250 201 276 314 244 249 247 250 245 244 268 265 252 249 273 276 277 277 274 277
332 340 342 338 334 332 334 336 336 328 348 306 166 180 265 307 244 292 265 249 259 274 256 273 247 190 258 174 338 209 239 238 250 227 237 205 261 245 238 254 263 268 269 271 272
339 343 340 334 336 343 337 348 8 67 33 79 230 312 263 297 296 326 304 235 229 285 330 190 226 208 181 176 216 215 222 236 255 216 227 238 263 264 264 266 269 271 270 268 268
343 342 343 343 346 344 341 350 19 351 316 264 281 253 264 275 287 290 295 336 240 232 182 243 188 222 217 224 282 274 263 252 253 200 214 242 255 264 254 256 258 263 266 261 253
345 343 342 345 343 335 337 356 353 310 303 320 281 274 265 266 274 281 287 297 303 259 193 226 233 247 268 261 228 248 267 268 307 297 230 245 257 260 262 262 253 257 257 255 253
344 343 345 343 336 345 334 350 343 349 346 304 315 307 305 235 244 253 264 271 262 267 254 223 224 221 239 249 248 244 236 260 268 305 291 304 284 272 265 264 264 258 259 261 258
342 342 341 342 349 333 312 322 332 340 65 277 294 272 313 191 254 231 244 244 235 240 232 255 248 255 259 229 237 250 251 253 245 255 261 203 280 265 270 268 267 251 250 255 262
341 341 335 343 292 305 312 332 328 47 30 334 294 278 301 21 340 151 272 286 222 234 195 232 283 238 238 246 231 251 251 245 230 238 247 243 275 269 225 250 250 253 248 258 262
339 337 329 311 291 309 327 325 26 50 296 319 315 348 355 351 346 352 48 27 325 258 227 231 210 249 255 262 262 286 232 235 258 242 244 218 220 277 246 247 243 247 253 264 254
336 333 310 288 263 321 323 353 40 90 337 338 327 338 341 356 332 4 337 241 185 351 301 289 250 238 235 247 256 232 241 232 239 202 234 178 220 239 267 238 242 251 254 248 260
337 333 312 281 290 306 331 41 60 307 319 329 336 311 355 14 312 327 349 346 259 177 218 210 248 217 164 189 216 186 182 192 197 193 243 258 234 247 236 253 260 248 254 273 231
334 331 301 299 267 273 58 40 231 336 288 325 330 321 345 338 268 329 340 304 20 34 279 116 252 38 301 297 188 310 219 206 283 275 356 233 283 298 270 272 266 262 232 183 147
336 333 286 230 196 53 67 262 257 314 322 353 316 308 318 322 329 341 315 8 360 18 347 16 309 266 306 348 271 202 293 167 201 213 236 259 257 234 263 263 270 248 174 157 142
358 11 338 174 302 52 138 237 287 322 357 310 298 304 323 331 307 302 352 319 335 334 312 115 15 310 338 210 231 308 224 221 168 197 221 288 248 234 256 268 274 233 172 159 160
351 6 177 195 25 33 295 280 327 325 344 298 290 304 331 303 290 297 326 229 344 338 319 118 149 264 253 249 261 236 248 149 195 255 265 229 256 266 290 304 293 172 161 149 143
335 275 17 253 43 318 297 323 306 324 318 291 286 299 272 279 321 269 245 299 282 286 316 355 280 307 316 310 237 252 182 7 232 231 245 235 259 233 264 325 360 146 148 143 139
343 350 331 30 142 22 319 314 328 297 296 340 294 325 342 311 255 286 299 289 289 190 265 46 243 226 228 273 325 286 291 300 315 254 247 245 284 266 270 309 111 247 146 150 149
43 284 201 304 322 315 304 279 312 322 304 316 305 328 313 297 299 257 306 310 292 273 176 163 234 260 266 269 267 262 262 256 247 257 263 290 276 277 268 294 220 170 148 145 149
30 2 349 288 278 303 317 334 312 320 298 301 315 310 304 293 272 293 281 279 258 281 173 177 251 235 281 267 263 243 235 241 243 263 254 251 275 277 288 284 117 167 155 152 155
356 313 241 274 294 319 255 321 299 322 300 290 302 305 305 287 277 279 261 262 242 227 229 195 211 237 271 337 176 227 241 219 250 215 225 248 276 300 349 24 97 199 161 157 159
Height
835 832 829 826 822 820 816 812 809 806 802 798 795 794 792 790 784 778 775 765 765 766 767 766 767 768 773 772 769 769 800 806 789 780 763 751 756 730 728 734 730 726 726 724 725
835 832 828 824 820 816 813 809 806 804 800 796 794 793 789 787 779 772 757 756 758 763 763 764 767 768 772 770 768 775 791 788 765 757 759 750 756 754 742 743 736 731 725 721 720
835 831 828 825 821 817 814 810 806 802 800 797 797 794 790 788 779 757 752 752 752 756 758 762 764 766 771 766 765 763 768 762 755 753 751 750 748 747 751 752 741 738 728 719 719
833 830 827 823 820 816 813 810 807 803 800 798 794 789 789 786 780 749 749 751 753 753 757 759 761 768 771 770 758 769 750 753 753 748 749 749 744 743 741 740 727 724 723 719 717
831 828 824 820 816 813 809 806 804 802 799 796 794 793 789 786 774 750 748 751 750 750 750 753 757 761 769 764 761 757 749 750 747 746 743 741 743 740 730 721 717 715 714 714 715
829 826 822 817 813 809 804 801 798 795 792 791 790 790 791 791 758 752 752 753 752 753 749 750 750 752 759 761 762 748 751 748 744 743 739 744 734 731 723 716 713 713 711 709 709
827 823 819 814 808 803 797 792 789 787 786 785 786 787 785 774 752 750 750 749 748 752 751 746 747 750 751 758 749 750 760 749 739 740 739 735 732 726 715 713 714 713 709 706 703
827 822 818 812 806 799 793 787 782 780 780 780 782 784 774 750 750 745 743 743 744 746 748 746 747 749 750 747 747 753 755 758 730 735 735 745 723 713 711 715 713 709 704 699 694
826 820 816 810 803 798 792 786 779 776 776 776 780 781 770 749 747 738 740 741 739 741 743 742 743 747 748 758 766 759 756 749 734 729 734 740 702 715 710 710 710 706 699 694 689
823 818 813 807 800 796 790 786 779 776 777 778 780 783 760 747 741 740 737 736 737 736 738 741 746 751 757 761 754 753 748 735 740 735 732 736 709 710 706 704 702 697 691 688 683
821 815 808 802 798 795 789 784 782 782 774 781 774 769 755 742 743 736 739 740 738 740 749 743 756 744 727 740 744 737 740 736 730 725 731 724 717 706 701 698 700 692 686 680 678
819 813 806 799 796 793 791 788 785 787 778 770 764 758 747 741 745 731 737 744 741 746 739 747 743 733 737 739 743 745 747 740 737 725 725 726 715 701 693 689 689 684 679 675 670
815 810 804 797 794 793 789 787 784 782 786 769 757 751 741 734 735 733 734 736 741 744 742 747 736 731 739 741 742 738 743 743 747 733 719 730 721 706 688 684 680 677 669 667 660
814 808 804 797 795 792 788 784 782 779 790 770 756 744 737 731 734 725 728 734 735 740 739 738 732 734 736 738 738 739 731 734 741 745 748 725 736 706 687 678 675 671 669 660 653
812 808 803 800 796 792 787 781 779 778 804 757 752 740 736 739 730 724 723 724 726 731 734 733 730 733 733 731 726 730 727 729 730 737 742 737 749 662 683 680 670 661 653 647 648
808 804 801 799 796 789 784 780 777 798 809 765 753 747 742 736 732 724 720 725 728 718 720 724 721 724 725 721 721 721 723 727 727 739 753 726 735 672 682 671 664 653 648 644 642
804 800 797 797 793 788 783 781 799 811 772 765 762 752 746 744 735 731 730 731 740 743 731 721 721 715 714 723 719 724 735 754 758 753 729 710 723 676 663 655 655 651 645 640 637
800 795 794 792 790 788 785 793 818 779 779 775 769 756 750 749 740 734 729 732 718 727 731 733 732 715 706 715 722 725 732 747 749 747 722 705 705 678 650 642 638 639 636 635 635
795 791 790 789 789 789 794 813 798 783 787 777 771 760 755 750 749 739 736 740 729 735 740 729 724 708 709 710 714 719 724 716 729 713 727 702 678 659 643 637 630 634 636 640 641
795 792 787 786 788 788 803 798 787 778 770 772 782 773 764 755 751 746 739 736 738 734 732 734 735 714 710 707 708 713 711 725 729 735 737 703 689 671 652 644 635 636 639 642 643
796 795 786 787 788 797 815 799 781 772 769 771 769 767 764 760 752 746 743 734 734 733 730 731 740 727 719 717 716 718 715 713 715 716 712 716 686 649 642 638 633 632 629 635 640
805 802 788 788 802 813 808 784 778 771 769 765 762 760 763 759 755 748 743 743 732 734 734 734 742 746 724 709 700 707 713 717 727 716 702 699 667 637 630 626 617 621 625 633 636
812 805 787 788 815 812 796 786 780 783 769 764 761 757 756 758 761 746 741 733 732 736 735 738 746 748 726 706 705 709 705 708 710 708 697 698 665 630 630 628 618 617 625 632 638
815 812 800 798 803 803 801 792 783 779 769 764 762 756 758 757 751 748 741 732 728 732 731 740 742 740 747 718 715 717 708 708 710 712 689 680 672 641 630 633 623 632 623 630 636
817 816 810 815 805 803 799 790 785 780 772 766 763 760 760 757 751 744 736 734 729 722 731 739 738 731 726 720 716 709 704 703 706 702 708 681 669 642 631 628 624 628 626 632 638
823 823 816 812 805 801 794 788 788 782 777 769 767 756 754 753 750 743 742 740 736 728 734 738 736 728 721 708 700 703 692 695 692 693 692 688 661 644 636 622 623 624 624 630 636
823 821 818 804 802 803 800 790 784 778 771 764 761 754 749 742 734 728 725 721 722 724 726 730 729 721 712 703 690 700 686 685 679 677 676 680 652 644 641 627 628 632 619 625 631